Stations météo

réclame
Mon MeteoGroup
Trawscoed, Grande-Bretagne (3503): Température de l'air & dewpoint: 22.10.2020 14:00:00 - 28.10.2020 14:00:00 (GMT)Trawscoed, Grande-Bretagne (3503): Température de l'air -20cm & Température de l'air -100cm: 22.10.2020 14:00:00 - 28.10.2020 14:00:00 (GMT)Trawscoed, Grande-Bretagne (3503): Vitesse du vent & gusts: 22.10.2020 14:00:00 - 28.10.2020 14:00:00 (GMT)Trawscoed, Grande-Bretagne (3503): Direction du vent: 22.10.2020 14:00:00 - 28.10.2020 14:00:00 (GMT)Trawscoed, Grande-Bretagne (3503): reduced air pressure: 22.10.2020 14:00:00 - 28.10.2020 14:00:00 (GMT)Trawscoed, Grande-Bretagne (3503): visibility: 22.10.2020 14:00:00 - 28.10.2020 14:00:00 (GMT)Trawscoed, Grande-Bretagne (3503): Quantités de précipitations: 22.10.2020 14:00:00 - 28.10.2020 14:00:00 (GMT)
Date & Time tt [°C] td [°C] tt -20cm [°C] tt -100cm [°C] ff [km/h] ff [knt] fx [km/h] fx [knt] dd ppp [hPa] vv [km] rr [mm]
28.10.2020 14:00:00 - - - - - - - - - - - 0,4
28.10.2020 13:00:00 9,8 6,4 - - 9 5 - - SSW 998,6 45 0,2
28.10.2020 12:00:00 10,1 6,4 - - 15 8 - - SSW 998,5 45 0,0
28.10.2020 11:00:00 8,3 7,2 - - 11 6 52 28 S 998,4 30 2,8
28.10.2020 10:00:00 9,3 6,2 - - 11 6 - - S 998,0 16 0,0
28.10.2020 09:00:00 8,8 5,8 11,7 13,0 11 6 - - S 997,7 18 0,0
28.10.2020 08:00:00 7,7 5,4 - - 11 6 - - S 997,4 25 0,0
28.10.2020 07:00:00 7,3 5,2 - - 11 6 - - S 997,0 30 0,0
28.10.2020 06:00:00 7,3 5,9 - - 11 6 - - S 996,8 16 0,2
28.10.2020 05:00:00 6,7 4,9 - - 8 4 - - SSE 996,7 23 0,0
28.10.2020 04:00:00 7,1 5,0 - - 9 5 - - S 996,5 30 1,0
28.10.2020 03:00:00 7,6 5,2 - - 13 7 - - S 996,4 26 0,0
28.10.2020 02:00:00 8,0 4,9 - - 9 5 - - S 996,4 50 0,0
28.10.2020 01:00:00 8,0 5,2 - - 11 6 - - S 996,0 30 0,0
28.10.2020 00:00:00 8,1 6,0 - - 11 6 - - S 996,0 13 0,0
27.10.2020 23:00:00 8,1 6,2 - - 15 8 - - S 996,1 14 0,4
27.10.2020 22:00:00 8,0 5,1 - - 11 6 - - S 996,2 18 0,0
27.10.2020 21:00:00 8,2 5,7 - - 9 5 - - S 996,0 15 0,0
27.10.2020 20:00:00 8,6 5,5 - - 9 5 - - S 995,6 8 0,2
27.10.2020 19:00:00 9,0 5,9 - - 9 5 - - S 995,1 13 0,0
27.10.2020 18:00:00 9,5 6,7 - - 13 7 - - SSW 994,2 12 1,4
27.10.2020 17:00:00 10,6 6,6 - - 9 5 - - SSW 993,6 13 0,0
27.10.2020 16:00:00 11,3 5,8 - - 15 8 - - WSW 993,1 14 0,0
27.10.2020 15:00:00 12,4 7,3 - - 16 9 - - WSW 992,7 15 0,0
27.10.2020 14:00:00 12,1 9,0 - - 15 8 - - WSW 991,8 18 0,0
27.10.2020 13:00:00 11,6 10,8 - - 9 5 - - WSW 991,4 3,5 1,4
27.10.2020 12:00:00 13,2 11,2 - - 18 10 - - SW 990,5 2,8 0,4
27.10.2020 11:00:00 12,3 10,7 - - 15 8 - - S 990,2 21 0,0
27.10.2020 10:00:00 11,6 9,5 - - 21 11 - - SSE 990,6 11 0,0
27.10.2020 09:00:00 11,2 9,1 11,7 13,0 24 13 - - SSE 991,0 17 0,0
27.10.2020 08:00:00 10,5 8,6 - - 26 14 - - SSE 992,2 50 0,0
27.10.2020 07:00:00 9,7 8,7 - - 18 10 - - SSE 993,3 7 0,0
27.10.2020 06:00:00 8,9 8,1 - - 15 8 - - SSE 994,8 18 0,4
27.10.2020 05:00:00 8,6 7,0 - - 15 8 - - SSE 996,4 13 0,4
27.10.2020 04:00:00 8,4 6,4 - - 9 5 - - SSE 997,2 26 0,0
27.10.2020 03:00:00 8,3 6,4 - - 9 5 - - S 998,2 25 0,0
27.10.2020 02:00:00 8,2 6,6 - - 8 4 - - S 999,1 26 0,0
27.10.2020 01:00:00 8,0 6,9 - - 5 3 - - S 999,6 22 0,0
27.10.2020 00:00:00 9,5 7,0 - - 11 6 - - SW 1000,2 26 0,0
26.10.2020 23:00:00 9,3 7,5 - - 8 4 - - WSW 1000,6 25 0,6
26.10.2020 22:00:00 9,7 6,7 - - 8 4 - - WNW 1000,6 26 0,0
26.10.2020 21:00:00 10,6 6,6 - - 11 6 - - W 1000,2 30 0,0
26.10.2020 20:00:00 9,9 6,2 - - 9 5 - - WNW 999,8 35 0,0
26.10.2020 19:00:00 9,8 7,1 - - 11 6 - - SW 999,6 35 0,0
26.10.2020 18:00:00 10,3 6,8 - - 8 4 - - W 999,5 27 0,0
26.10.2020 17:00:00 11,2 6,4 - - 16 9 - - W 999,0 25 0,0
26.10.2020 16:00:00 11,4 7,1 - - 15 8 - - W 998,9 18 0,0
26.10.2020 15:00:00 11,4 7,3 - - 22 12 - - W 998,4 16 0,0
26.10.2020 14:00:00 11,5 7,5 - - 21 11 - - W 998,1 14 0,0
26.10.2020 13:00:00 12,2 8,0 - - 24 13 46 25 W 997,9 13 0,0
26.10.2020 12:00:00 11,8 8,0 - - 21 11 46 25 W 997,7 16 0,0
26.10.2020 11:00:00 11,1 7,7 - - 24 13 - - W 996,9 14 0,0
26.10.2020 10:00:00 11,0 8,2 - - 22 12 - - W 996,0 15 0,2
26.10.2020 09:00:00 10,2 8,7 11,7 13,2 21 11 - - WNW 995,2 15 1,4
26.10.2020 08:00:00 10,7 8,5 - - 21 11 48 26 W 994,1 22 0,0
26.10.2020 07:00:00 10,3 8,9 - - 22 12 - - W 993,0 17 0,6
26.10.2020 06:00:00 10,4 8,8 - - 16 9 - - W 992,2 6 1,8
26.10.2020 05:00:00 9,8 8,4 - - 18 10 - - WSW 991,9 14 0,8
26.10.2020 04:00:00 8,2 7,1 - - 9 5 - - S 992,0 14 0,2
26.10.2020 03:00:00 8,0 7,0 - - 9 5 - - S 992,5 19 0,2
26.10.2020 02:00:00 7,8 6,6 - - 8 4 - - S 992,7 22 0,2
26.10.2020 01:00:00 7,3 6,2 - - 8 4 - - SSE 992,6 18 0,8
26.10.2020 00:00:00 7,6 6,3 - - 11 6 - - S 993,0 6 0,0
25.10.2020 23:00:00 7,7 6,4 - - 9 5 - - SSE 993,2 28 0,8
25.10.2020 22:00:00 7,3 5,4 - - 4 2 - - S 993,2 40 0,2
25.10.2020 21:00:00 7,1 5,3 - - 9 5 - - S 993,3 50 0,0
25.10.2020 20:00:00 7,2 5,8 - - 11 6 - - SSE 993,3 45 0,0
25.10.2020 19:00:00 7,4 5,8 - - 8 4 - - SSE 993,3 50 0,0
25.10.2020 18:00:00 8,0 6,1 - - 8 4 - - S 993,0 50 0,2
25.10.2020 17:00:00 8,7 6,5 - - 0 0 - - N 992,8 50 0,2
25.10.2020 16:00:00 10,4 6,6 - - 9 5 - - S 992,2 40 0,0
25.10.2020 15:00:00 10,3 6,9 - - 11 6 - - S 992,0 45 0,0
25.10.2020 14:00:00 10,4 7,0 - - 11 6 - - SSE 992,0 40 0,2
25.10.2020 13:00:00 9,8 6,7 - - 13 7 - - S 992,4 30 0,4
25.10.2020 12:00:00 9,8 7,2 - - 9 5 - - S 992,3 40 0,0
25.10.2020 11:00:00 10,7 7,7 - - 13 7 - - S 992,5 21 0,0
25.10.2020 10:00:00 10,6 6,8 - - 15 8 - - S 992,1 25 0,0
25.10.2020 09:00:00 9,1 6,4 12,0 13,2 13 7 - - S 992,1 28 0,0
25.10.2020 08:00:00 8,1 5,1 - - 15 8 - - SSE 992,0 45 0,0
25.10.2020 07:00:00 7,9 4,9 - - 11 6 - - S 991,4 50 0,0
25.10.2020 06:00:00 8,2 5,8 - - 11 6 - - S 991,0 45 0,0
25.10.2020 05:00:00 8,1 6,1 - - 9 5 - - S 991,0 40 1,0
25.10.2020 04:00:00 8,5 6,1 - - 11 6 - - SSE 990,9 19 0,0
25.10.2020 03:00:00 8,3 6,3 - - 11 6 - - S 991,2 15 0,2
25.10.2020 02:00:00 7,8 5,5 - - 11 6 - - SSE 991,6 23 0,0
25.10.2020 01:00:00 8,0 5,3 - - 16 9 - - SE 991,9 28 0,0
25.10.2020 00:00:00 - - - - - - - - - - - -
24.10.2020 23:00:00 7,8 5,3 - - 8 4 - - S 992,3 30 0,0
24.10.2020 22:00:00 8,5 6,1 - - 11 6 - - S 992,0 50 0,0
24.10.2020 21:00:00 9,0 7,6 - - 9 5 - - S 992,0 45 0,0
24.10.2020 20:00:00 8,9 7,3 - - 9 5 - - S 991,9 50 0,2
24.10.2020 19:00:00 8,9 7,2 - - 8 4 - - S 991,9 50 0,0
24.10.2020 18:00:00 8,7 7,2 - - 8 4 - - SSE 991,9 40 0,0
24.10.2020 17:00:00 9,5 8,1 - - 8 4 - - SW 991,9 22 0,2
24.10.2020 16:00:00 9,6 8,5 - - 13 7 46 25 WSW 991,9 22 1,6
24.10.2020 15:00:00 11,5 10,6 - - 11 6 - - S 991,3 6 1,8
24.10.2020 14:00:00 11,2 10,3 - - 5 3 - - S 992,5 11 3,0
24.10.2020 13:00:00 11,8 10,5 - - 13 7 - - S 993,4 12 1,2
24.10.2020 12:00:00 12,4 10,9 - - 18 10 - - S 994,7 23 1,2
24.10.2020 11:00:00 12,3 11,2 - - 11 6 - - S 996,0 11 0,8
24.10.2020 10:00:00 12,5 10,9 - - 15 8 - - SSW 996,5 23 0,6
24.10.2020 09:00:00 12,5 10,9 12,4 13,4 15 8 - - S 996,1 15 5,2
24.10.2020 08:00:00 13,0 12,1 - - 16 9 - - S 996,5 6 0,8
24.10.2020 07:00:00 12,0 11,1 - - 18 10 - - S 997,2 4,4 0,8
24.10.2020 06:00:00 11,6 10,5 - - 21 11 - - S 998,2 4,3 0,6
24.10.2020 05:00:00 11,0 9,6 - - 21 11 54 29 S 999,3 5 0,2
24.10.2020 04:00:00 11,2 8,8 - - 26 14 - - SSE 1000,1 14 0,0
24.10.2020 03:00:00 10,8 8,3 - - 11 6 - - S 1002,0 17 0,0
24.10.2020 02:00:00 9,7 7,5 - - 15 8 - - SSE 1002,6 23 0,0
24.10.2020 01:00:00 8,9 6,7 - - 11 6 - - SE 1004,2 21 0,0
24.10.2020 00:00:00 9,0 6,0 - - 13 7 - - SSE 1005,4 26 0,0
23.10.2020 23:00:00 7,6 5,5 - - 9 5 - - S 1006,4 23 0,0
23.10.2020 22:00:00 7,0 4,8 - - 8 4 - - S 1007,0 26 0,0
23.10.2020 21:00:00 5,9 4,2 - - 4 2 - - SW 1007,5 23 0,0
23.10.2020 20:00:00 7,2 4,9 - - 8 4 - - S 1007,6 28 0,0
23.10.2020 19:00:00 6,9 4,6 - - 8 4 - - S 1008,0 26 0,0
23.10.2020 18:00:00 7,6 5,2 - - 5 3 - - S 1007,7 30 0,0
23.10.2020 17:00:00 9,2 5,4 - - 8 4 - - SSW 1007,3 22 0,0
23.10.2020 16:00:00 11,4 6,1 - - 8 4 - - WSW 1007,4 30 0,0
23.10.2020 15:00:00 11,3 6,7 - - 9 5 - - WSW 1006,9 23 0,0
23.10.2020 14:00:00 12,0 6,7 - - 21 11 - - W 1006,5 19 0,0
23.10.2020 13:00:00 12,0 6,2 - - 21 11 - - W 1006,1 27 0,0
23.10.2020 12:00:00 11,8 6,4 - - 21 11 - - W 1005,7 45 0,0
23.10.2020 11:00:00 11,3 8,9 - - 18 10 - - WSW 1005,2 26 0,0
23.10.2020 10:00:00 10,2 9,0 - - 16 9 - - S 1004,4 11 0,8
23.10.2020 09:00:00 9,6 7,9 12,7 13,4 8 4 - - S 1004,6 16 0,8
23.10.2020 08:00:00 9,1 7,1 - - 13 7 - - SE 1004,6 14 0,0
23.10.2020 07:00:00 8,8 6,8 - - 13 7 - - SE 1004,9 30 0,0
23.10.2020 06:00:00 8,2 6,5 - - 5 3 - - S 1005,5 30 0,0
23.10.2020 05:00:00 7,7 6,4 - - 4 2 - - S 1005,7 45 0,0
23.10.2020 04:00:00 6,9 5,4 - - 0 0 - - N 1006,0 50 0,0
23.10.2020 03:00:00 6,9 5,1 - - 2 1 - - E 1006,4 50 0,0
23.10.2020 02:00:00 6,7 4,9 - - 0 0 - - N 1007,2 50 0,0
23.10.2020 01:00:00 6,1 4,4 - - 2 1 - - SE 1007,8 50 0,0
23.10.2020 00:00:00 5,6 4,5 - - 0 0 - - N 1008,4 40 0,0
22.10.2020 23:00:00 5,3 4,6 - - 4 2 - - E 1009,0 35 0,0
22.10.2020 22:00:00 4,1 3,5 - - 2 1 - - ENE 1009,2 45 0,0
22.10.2020 21:00:00 4,5 3,3 - - 2 1 - - SSW 1009,7 40 0,0
22.10.2020 20:00:00 5,0 3,2 - - 5 3 - - S 1009,6 40 0,0
22.10.2020 19:00:00 6,2 3,9 - - 5 3 - - S 1009,6 50 0,0
22.10.2020 18:00:00 8,1 5,7 - - 4 2 - - S 1009,3 45 0,0
22.10.2020 17:00:00 9,7 4,0 - - 8 4 - - SW 1009,1 50 0,0
22.10.2020 16:00:00 10,3 3,8 - - 9 5 - - WSW 1008,8 40 0,0
22.10.2020 15:00:00 12,0 5,1 - - 9 5 - - WSW 1008,5 35 0,0
22.10.2020 14:00:00 11,6 5,2 - - 15 8 - - W 1008,3 30 0,0

tt = Température de l'air
td = dewpoint
tt -20cm = Température de l'air -20cm
tt -100cm = Température de l'air -100cm
ff = Vitesse du vent
fx = gusts
dd = Direction du vent
ppp = reduced air pressure
vv = visibility
rr = Quantités de précipitations

stations d'obs. à proximité